[[{"header":{"parameterUnit":"m.s-1","parameterCategory":1,"la1":30.2991,"la2":30.254,"lo1":-89.0895,"lo2":-89.0444,"dy":0.0017,"dx":0.0017,"nx":28,"ny":28,"refTime":"2025-05-20T21:00:00:Z","depth":0,"parameterNumber":2,"parameterNumberName":"U-component_of_WINDS"},"data":[0,0,0,0,0,0,0,0,0,0,0,0,0,0,0,0,0,0,0,0,0,0,0,0,0,0,0,0,0,0,0,0,0,0,0,0,0,0,0,0,0,0,0,0,0,0,0,0,0,0,0,0,0,0,0,0,0,0,0.8565,0.8567,0,0.8699,0.8701,0.8702,0.8703,0.8701,0.8699,0.8697,0.8839,0.8844,0.8849,0,0,0,0,0,0,0,0,0,0,0,0,0,0.8315,0.8319,0.8565,0.8567,0.8569,0.8699,0.8701,0.8703,0.8703,0.8701,0.8699,0.8697,0.8837,0.8844,0.885,0,0,0,0,0,0,0,0,0,0,0,0,0,0.8434,0.8321,0.8565,0.8584,0.8587,0.8699,0.8701,0.8703,0.8703,0.8701,0.8698,0.8696,0.8835,0.8843,0.8851,0.8953,0,0,0.8876,0.8879,0,0,0,0,0,0,0,0,0.8427,0.8443,0.858,0.8583,0.8587,0.8681,0.8664,0.8787,0.8704,0.8659,0.8697,0.8694,0.8789,0.8801,0.8832,0.896,0.8966,0.8876,0.8881,0.8885,0.8887,0,0,0,0,0,0,0,0.8419,0.8437,0.8618,0.8582,0.8586,0.8588,0.8602,0.8688,0.8737,0.8663,0.8663,0.8679,0.879,0.8824,0.8835,0.8968,0.8876,0.8883,0.8888,0.8891,0.9187,0.919,0,0,0,0,0,0,0.8406,0.843,0.8614,0.8622,0.8499,0.8595,0.861,0.8654,0.8736,0.8746,0.8681,0.8679,0.8811,0.8826,0.884,0.8965,0.8885,0.8892,0.8897,0.9184,0.9188,0.9191,0,0,0,0,0,0,0.84,0.8422,0.8609,0.8526,0.855,0.8602,0.8651,0.8658,0.8691,0.875,0.8759,0.8706,0.881,0.8829,0.8925,0.897,0.8896,0.8903,0.9181,0.9185,0.9189,0.9215,0,0,0,0,0,0,0.8393,0.842,0.8458,0.8527,0.8555,0.869,0.8653,0.8662,0.8705,0.8702,0.8776,0.8785,0.8809,0.8913,0.8933,0.8979,0.8909,0.9177,0.9183,0.9188,0.9211,0.922,0.9228,0,0,0,0,0,0.8384,0.8461,0.846,0.8482,0.8603,0.8692,0.8708,0.8733,0.8708,0.8748,0.8786,0.8783,0.8962,0.8922,0.8945,0.8995,0.9174,0.9181,0.9188,0.9207,0.9218,0.9228,0,0,0,0,0,0,0.8397,0.847,0.847,0.8571,0.8626,0.8692,0.8743,0.8744,0.8808,0.8803,0.8833,0.8849,0.8945,0.898,0.8935,0.9099,0.9065,0.9077,0.9072,0.9083,0.9092,0.9081,0.8916,0,0,0,0,0,0.8412,0.8477,0.8538,0.8621,0.8648,0.8691,0.8731,0.8745,0.8803,0.8826,0.8871,0.8929,0.8998,0.9043,0.911,0.9216,0.9232,0.9262,0.9271,0.9278,0.9287,0.9346,0.936,0.9213,0.9213,0.9213,0,0,0.8443,0.8491,0.853,0.8625,0.8669,0.8737,0.871,0.8783,0.8834,0.8838,0.893,0.8966,0.9032,0.9134,0.9181,0.9166,0.9331,0.9286,0.9291,0.9297,0.9355,0.9368,0.9381,0.9218,0.9217,0.9216,0,0,0.8533,0.8576,0.865,0.8695,0.876,0.8788,0.8806,0.8873,0.8896,0.899,0.8994,0.9056,0.9175,0.9222,0.9261,0.9371,0.9371,0.9392,0.9438,0.9495,0.9506,0.9517,0.9556,0.9569,0.9401,0.9402,0.9402,0,0.8564,0.8664,0.8689,0.8762,0.8804,0.8809,0.8885,0.8928,0.9013,0.9042,0.9024,0.9173,0.9218,0.9331,0.9357,0.9389,0.9411,0.9383,0.9503,0.9513,0.9523,0.9561,0.9575,0.9404,0.9403,0.9403,0.9403,0,0.8698,0.8769,0.8821,0.8901,0.895,0.9024,0.9061,0.9107,0.9118,0.9148,0.9244,0.9298,0.9376,0.9405,0.9416,0.9519,0.9508,0.9496,0.9463,0.9539,0.9574,0.9589,0.9407,0.9406,0.9405,0.9405,0,0,0.8799,0.8893,0.8911,0.8948,0.9022,0.9077,0.9153,0.9228,0.9267,0.9326,0.939,0.9491,0.948,0.9525,0.9543,0.9593,0.9676,0.9575,0.9577,0.9591,0.9793,0.9801,0.9817,0.9677,0.968,0.9682,0.9787,0,0.8897,0.9029,0.9053,0.9169,0.9234,0.9241,0.9307,0.936,0.9391,0.9453,0.9488,0.9558,0.9539,0.9566,0.9616,0.9655,0.9717,0.9648,0.9738,0.9741,0.9719,0.9835,0.9844,0.994,0.9801,0.9804,0.9805,0,0.9028,0.9089,0.9211,0.9276,0.9304,0.9363,0.9434,0.9492,0.9553,0.9573,0.9623,0.9635,0.9715,0.9679,0.979,0.9742,0.9781,0.9806,0.981,0.9818,0.9776,0.9846,0.9971,0.9985,0.9828,0.9826,0.9824,0,0.9089,0.9202,0.9289,0.932,0.9399,0.944,0.9475,0.9533,0.9577,0.964,0.9669,0.9741,0.978,0.9837,0.9868,0.9839,0.9977,0.9943,0.9995,0.9994,1.0023,1.002,1.0155,1.005,1.0049,1.0049,1.0049,0,0.9194,0.9268,0.9317,0.937,0.9454,0.9483,0.9565,0.96,0.9652,0.9713,0.9725,0.9783,0.9822,0.9885,0.9911,0.9999,1.0017,1.0035,1.0041,1.0033,1.0031,1.0058,1.0052,1.0053,1.0052,1.0051,1.0051,0,0.9275,0.9311,0.9406,0.9473,0.9491,0.955,0.9608,0.9661,0.9692,0.977,0.979,0.984,0.9915,0.9953,1.0047,1.0065,1.0164,1.0166,1.0142,1.0144,1.0194,1.0188,1.0349,1.0372,1.0253,1.0254,1.0255,0,0.9339,0.9396,0.9469,0.951,0.9546,0.9613,0.9657,0.9689,0.9735,0.9809,0.9853,0.9929,0.9991,1.0113,1.0158,1.0231,1.0234,1.0286,1.0245,1.0235,1.0234,1.0229,1.0235,1.0292,1.0293,1.0294,1.0295,0,0.9449,0.9464,0.9527,0.9597,0.9649,0.9706,0.9762,0.9795,0.9836,0.9888,0.9964,1.0013,1.0109,1.0184,1.026,1.0298,1.0304,1.0308,1.0323,1.0315,1.0299,1.0308,1.0161,1.0303,1.0303,1.0302,1.0302,1.0301,0.9523,0.9574,0.9633,0.9703,0.9748,0.98,0.9853,0.9891,0.9955,1.0035,1.0051,1.0132,1.0193,1.0296,1.0336,1.0401,1.039,1.0413,1.0418,1.0423,1.0425,1.029,1.0415,1.0415,1.0415,1.0415,1.0415,0,0.9633,0.9671,0.9735,0.9813,0.9868,0.9868,0.993,0.9977,1.0048,1.0104,1.0165,1.0254,1.0327,1.0379,1.0454,1.0496,1.0501,1.0515,1.0511,1.052,1.0431,1.041,1.051,1.051,1.051,1.051,1.051,1.051,0.9696,0.9782,0.9804,0.9913,0.9952,1.003,1.0066,1.0115,1.0159,1.0257,1.0318,1.0351,1.0406,1.0485,1.0553,1.0566,1.0593,1.0607,1.062,1.0536,1.0526,1.0517,1.0496,1.0613,1.0613,1.0703,1.0704,1.0705]},{"header":{"parameterUnit":"m.s-1","parameterCategory":1,"la1":30.2991,"la2":30.254,"lo1":-89.0895,"lo2":-89.0444,"dy":0.0017,"dx":0.0017,"nx":28,"ny":28,"refTime":"2025-05-20T21:00:00:Z","depth":0,"parameterNumber":3,"parameterNumberName":"V-component_of_WINDS"},"data":[0,0,0,0,0,0,0,0,0,0,0,0,0,0,0,0,0,0,0,0,0,0,0,0,0,0,0,0,0,0,0,0,0,0,0,0,0,0,0,0,0,0,0,0,0,0,0,0,0,0,0,0,0,0,0,0,0,0,1.3839,1.3839,0,1.3867,1.3867,1.3867,1.3777,1.3775,1.3772,1.3769,1.3801,1.3804,1.3808,0,0,0,0,0,0,0,0,0,0,0,0,0,1.3711,1.3714,1.3839,1.3839,1.384,1.3867,1.3867,1.3867,1.3778,1.3775,1.3771,1.3768,1.38,1.3804,1.3808,0,0,0,0,0,0,0,0,0,0,0,0,0,1.3756,1.3715,1.3839,1.3798,1.3795,1.3867,1.3867,1.3867,1.3779,1.3775,1.377,1.3767,1.3799,1.3804,1.3809,1.3922,0,0,1.3824,1.3826,0,0,0,0,0,0,0,0,1.3753,1.376,1.3804,1.3801,1.3798,1.3814,1.3833,1.3886,1.378,1.3785,1.3769,1.3765,1.3809,1.3813,1.3827,1.3923,1.3925,1.3824,1.3828,1.383,1.3831,0,0,0,0,0,0,0,1.375,1.3759,1.385,1.3805,1.3801,1.3779,1.3781,1.3843,1.382,1.3784,1.3778,1.3782,1.3806,1.3823,1.3827,1.3925,1.3824,1.3829,1.3832,1.3834,1.4112,1.4116,0,0,0,0,0,0,1.3752,1.3757,1.3849,1.3851,1.3765,1.3785,1.3787,1.3813,1.3819,1.3816,1.3785,1.3778,1.3816,1.3821,1.3828,1.3958,1.383,1.3834,1.3837,1.4108,1.4113,1.4118,0,0,0,0,0,0,1.375,1.3761,1.3848,1.3802,1.3811,1.3791,1.3822,1.3816,1.3832,1.382,1.3815,1.3806,1.3813,1.3821,1.3898,1.3958,1.3837,1.3841,1.4103,1.4109,1.4115,1.4222,0,0,0,0,0,0,1.3746,1.3761,1.3803,1.3804,1.3814,1.3918,1.3825,1.3819,1.384,1.383,1.3838,1.3835,1.381,1.3891,1.3903,1.3963,1.3845,1.4097,1.4106,1.4113,1.4213,1.4231,1.4247,0,0,0,0,0,1.3742,1.3834,1.3806,1.3818,1.3867,1.3921,1.3927,1.3896,1.3846,1.3888,1.388,1.3835,1.395,1.39,1.3913,1.3975,1.4093,1.4103,1.4113,1.4205,1.4228,1.4247,0,0,0,0,0,0,1.3843,1.3833,1.3802,1.3897,1.391,1.3906,1.3959,1.3921,1.3951,1.394,1.3901,1.3903,1.3987,1.3989,1.3933,1.4083,1.4013,1.4026,1.4079,1.41,1.4117,1.4114,1.385,0,0,0,0,0,1.3876,1.392,1.391,1.3994,1.4002,1.398,1.4002,1.3976,1.399,1.3995,1.3993,1.4008,1.4047,1.4074,1.411,1.4213,1.4212,1.4262,1.4279,1.4293,1.4304,1.4356,1.4378,1.415,1.415,1.415,0,0,1.3945,1.3945,1.3976,1.4014,1.4022,1.4068,1.3985,1.4039,1.4073,1.4004,1.4075,1.4074,1.4088,1.4178,1.4218,1.4183,1.4367,1.4306,1.4317,1.432,1.4369,1.439,1.4409,1.4156,1.4155,1.4154,0,0,1.4094,1.41,1.4169,1.4177,1.4189,1.4173,1.419,1.4191,1.4187,1.4258,1.4206,1.4247,1.4316,1.4327,1.4342,1.4493,1.4452,1.4506,1.4595,1.4646,1.4664,1.4679,1.4731,1.475,1.4517,1.4518,1.4518,0,1.4179,1.4246,1.421,1.4266,1.4283,1.4221,1.429,1.4301,1.4325,1.4339,1.4298,1.4381,1.4387,1.4477,1.4514,1.4529,1.4546,1.4504,1.4664,1.4679,1.4693,1.4742,1.4762,1.4524,1.4523,1.4523,1.4522,0,1.4348,1.4396,1.4451,1.4472,1.4496,1.4559,1.4532,1.4561,1.4533,1.4521,1.4593,1.4598,1.4632,1.4651,1.4626,1.4738,1.4715,1.467,1.4598,1.4722,1.4767,1.4786,1.4533,1.4531,1.4529,1.4527,0,0,1.4563,1.4561,1.4582,1.4589,1.4597,1.4633,1.4693,1.4724,1.4749,1.4767,1.4815,1.4874,1.4831,1.4849,1.4823,1.4869,1.4985,1.4818,1.4817,1.4847,1.5106,1.5138,1.5161,1.4958,1.4962,1.4964,1.5104,0,1.4707,1.4807,1.4775,1.4876,1.4918,1.4859,1.4911,1.4921,1.4912,1.4946,1.4936,1.4977,1.4919,1.4929,1.4971,1.4962,1.5036,1.4952,1.5002,1.5004,1.4998,1.5184,1.5219,1.5351,1.5122,1.5125,1.5127,0,1.4889,1.4912,1.5017,1.5014,1.5031,1.5078,1.5102,1.5137,1.5147,1.5137,1.5154,1.5119,1.5177,1.5106,1.5184,1.5127,1.5146,1.5145,1.5149,1.5151,1.5072,1.519,1.5392,1.5411,1.5155,1.5152,1.515,0,1.5032,1.5089,1.5158,1.5167,1.5167,1.52,1.5202,1.5208,1.5228,1.5251,1.5263,1.5293,1.5309,1.5333,1.5306,1.5257,1.5388,1.5315,1.538,1.5381,1.5409,1.5407,1.5615,1.5425,1.5424,1.5424,1.5424,0,1.5195,1.5261,1.5221,1.5264,1.5336,1.5298,1.5371,1.5366,1.5371,1.5411,1.5363,1.5402,1.5366,1.5402,1.5382,1.5448,1.5456,1.5449,1.5443,1.5452,1.5453,1.5463,1.5452,1.5429,1.5428,1.5427,1.5426,0,1.5366,1.5342,1.5413,1.5406,1.5406,1.5459,1.5453,1.5492,1.5478,1.553,1.554,1.5519,1.5558,1.5534,1.5575,1.5561,1.5647,1.563,1.5644,1.5638,1.5703,1.5697,1.5924,1.5951,1.5745,1.5747,1.5748,0,1.5471,1.552,1.5518,1.554,1.5544,1.5582,1.5602,1.5567,1.5589,1.5603,1.564,1.5675,1.57,1.5766,1.5755,1.5785,1.5766,1.5843,1.577,1.5778,1.5764,1.5761,1.5765,1.5858,1.586,1.5862,1.5864,0,1.566,1.5645,1.5674,1.5699,1.5723,1.5742,1.5756,1.5778,1.5743,1.577,1.5809,1.5829,1.5869,1.5903,1.5928,1.593,1.5891,1.5887,1.5903,1.5913,1.5918,1.5913,1.5682,1.5882,1.588,1.5879,1.5878,1.5877,1.5799,1.5839,1.5842,1.5876,1.5883,1.5897,1.5932,1.5922,1.5953,1.5981,1.5959,1.6005,1.6011,1.6041,1.6047,1.6082,1.6051,1.6075,1.6081,1.6087,1.6095,1.5914,1.6087,1.6087,1.6086,1.6086,1.6085,0,1.5983,1.5981,1.6013,1.6033,1.606,1.6019,1.6033,1.6058,1.6098,1.6107,1.6132,1.6176,1.6208,1.6199,1.6228,1.6258,1.624,1.6266,1.6263,1.6264,1.6122,1.6104,1.628,1.628,1.628,1.628,1.628,1.628,1.6081,1.6145,1.613,1.6197,1.6195,1.6238,1.6249,1.6261,1.6268,1.6318,1.6344,1.6337,1.6338,1.6367,1.6395,1.6391,1.6403,1.6436,1.6425,1.6293,1.6274,1.6256,1.6238,1.6439,1.6439,1.6563,1.6564,1.6565]}]]